Tracking 20712 objects as of 28-May-2020
HD Live streaming from Space Station
objects crossing your sky now

THORAD AGENA D DEB

Track THORAD AGENA D DEB now!
10-day predictions


NORAD ID: 4451
Int'l Code: 1969-082EW
Perigee: 720.9 km
Apogee: 774.0 km
Inclination: 70.0 °
Period: 99.6 minutes
Semi major axis: 7118 km
RCS: 0.0152 m2 (small)
Launch date: September 30, 1969
Source: United States (US)
Launch site: AIR FORCE WESTERN TEST RANGE (AFWTR)

Note: This is SATELLITE DEBRIS
aabbcc
Your satellite tracking list
Your tracking list is empty




NASA's NSSDC Master Catalog

Two Line Element Set (TLE):
1  4451U 69082EW  20149.10065635  .00000174  00000-0  65919-4 0  9997
2  4451  70.0358 161.7304 0037304   6.7701 353.3926 14.45530720635803
Source of the keplerian elements: AFSPC